FW1308 Weather Reports


Display with metric or nautical units.
time (UTC)temp
F
wind
direction
speed
MPH
gust
MPH
rain 1hr
in
rain 24hr
in
rain mn
in
humidity
%
barometer
mb
20190324090128 45 242 1.0 9.0 0.00 0.00 0.00 72 1031.7
20190324084640 44 255 1.0 7.0 0.00 0.00 0.00 75 1031.7
20190324083158 43 266 1.0 7.0 0.00 0.00 0.00 77 1031.6
20190324081758 42 264 2.0 6.0 0.00 0.00 0.00 79 1031.5
20190324080126 41 225 2.0 4.0 0.00 0.00 0.00 80 1031.5
20190324074624 40 248 3.0 7.0 0.00 0.00 0.00 81 1031.4
20190324073119 39 279 2.0 5.0 0.00 0.00 0.00 84 1031.3
20190324071645 37 225 0.0 0.0 0.00 0.00 0.00 89 1031.3
20190324070143 36 240 0.0 0.0 0.00 0.00 0.00 90 1031.2
20190324064708 35 240 0.0 0.0 0.00 0.00 0.00 89 1031.0
20190324063207 35 240 0.0 0.0 0.00 0.00 0.00 89 1031.0
20190324061738 36 255 0.0 0.0 0.00 0.00 0.00 88 1031.0
20190324060132 36 264 0.0 0.0 0.00 0.00 0.00 88 1031.1
20190324054701 36 264 0.0 0.0 0.00 0.00 0.00 87 1030.9
20190324053115 37 264 0.0 0.0 0.00 0.00 0.00 86 1030.8
20190324051701 38 264 0.0 0.0 0.00 0.00 0.00 85 1030.6
20190324050112 39 264 0.0 0.0 0.00 0.00 0.00 85 1030.7
20190324044641 39 264 0.0 0.0 0.00 0.00 0.00 83 1030.8
20190324043107 40 264 0.0 0.0 0.00 0.00 0.00 82 1031.2
20190324041543 41 264 0.0 2.0 0.00 0.00 0.00 82 1031.5
20190324040038 41 259 0.0 0.0 0.00 0.00 0.00 82 1031.5
20190324034534 41 267 0.0 1.0 0.00 0.00 0.00 82 1031.4
20190324033033 41 268 0.0 1.0 0.00 0.00 0.00 81 1031.6
20190324031547 42 262 0.0 0.0 0.00 0.00 0.00 81 1031.6
20190324030053 42 255 0.0 0.0 0.00 0.00 0.00 80 1031.5
20190324024531 42 149 0.0 0.0 0.00 0.00 0.00 80 1031.4
20190324023027 42 149 0.0 0.0 0.00 0.00 0.00 79 1031.2
20190324021530 43 260 0.0 0.0 0.00 0.00 0.00 79 1031.4
20190324020021 43 158 0.0 0.0 0.00 0.00 0.00 78 1031.4
20190324014607 43 272 0.0 0.0 0.00 0.00 0.00 77 1031.7
20190324013024 43 267 0.0 0.0 0.00 0.00 0.00 77 1031.8
20190324011524 43 158 0.0 0.0 0.00 0.00 0.00 76 1031.9
20190324010013 43 263 0.0 0.0 0.00 0.00 0.00 76 1032.2
20190324004510 43 145 0.0 1.0 0.00 0.00 0.00 76 1032.2
20190324003011 43 150 0.0 2.0 0.00 0.00 0.00 76 1032.5
20190324001504 43 271 0.0 0.0 0.00 0.00 0.00 76 1032.8
20190324000143 44 238 0.0 2.0 0.00 0.00 0.00 76 1033.0
20190323234710 44 266 0.0 2.0 0.00 0.00 0.00 74 1033.0
20190323233237 44 269 0.0 1.0 0.00 0.00 0.00 74 1033.3
20190323231814 44 272 0.0 1.0 0.00 0.00 0.00 74 1033.4
20190323230203 44 221 0.0 4.0 0.00 0.00 0.00 74 1033.3
20190323224700 45 260 0.0 2.0 0.00 0.00 0.00 73 1033.3
20190323223233 45 265 0.0 1.0 0.00 0.00 0.00 71 1033.4
20190323221712 45 270 0.0 2.0 0.00 0.00 0.00 70 1033.5
20190323220205 45 248 0.0 0.0 0.00 0.00 0.00 70 1033.5
20190323214621 45 266 0.0 0.0 0.00 0.00 0.00 71 1033.5
20190323213159 46 276 0.0 0.0 0.00 0.00 0.00 70 1033.5
20190323211713 46 269 0.0 1.0 0.00 0.00 0.00 69 1033.5
20190323210302 46 273 0.0 1.0 0.00 0.00 0.00 70 1033.5
20190323204646 46 260 0.0 1.0 0.00 0.00 0.00 69 1033.4
20190323203206 46 208 0.0 1.0 0.00 0.00 0.00 68 1033.3
20190323201654 47 208 0.0 0.0 0.00 0.00 0.00 66 1033.3
20190323200144 47 208 0.0 0.0 0.00 0.00 0.00 65 1033.2
20190323194627 48 217 0.0 1.0 0.00 0.00 0.00 63 1033.2
20190323193156 48 212 0.0 0.0 0.00 0.00 0.00 63 1033.2
20190323191717 48 70 0.0 0.0 0.00 0.00 0.00 62 1033.1
20190323190135 48 334 0.0 0.0 0.00 0.00 0.00 62 1033.0
20190323184637 48 334 0.0 0.0 0.00 0.00 0.00 60 1032.8
20190323183141 48 293 0.0 1.0 0.00 0.00 0.00 59 1032.7
20190323181640 49 263 0.0 0.0 0.00 0.00 0.00 57 1032.5
20190323180140 49 263 0.0 0.0 0.00 0.00 0.00 55 1032.5
20190323174721 50 263 0.0 1.0 0.00 0.00 0.00 54 1032.5
20190323173305 51 262 0.0 1.0 0.00 0.00 0.00 54 1032.4
20190323171625 51 261 0.0 2.0 0.00 0.00 0.00 52 1032.6
20190323170136 52 32 0.0 2.0 0.00 0.00 0.00 53 1032.7
20190323164816 52 278 0.0 2.0 0.00 0.00 0.00 52 1032.6
20190323163124 52 267 0.0 3.0 0.00 0.00 0.00 54 1032.7
20190323161558 52 240 0.0 1.0 0.00 0.00 0.00 55 1032.7
20190323160148 52 267 2.0 6.0 0.00 0.00 0.00 53 1032.7
20190323154628 52 279 0.0 2.0 0.00 0.00 0.00 55 1032.9
20190323153141 52 146 0.0 4.0 0.00 0.00 0.00 55 1033.0
20190323151547 52 123 0.0 4.0 0.00 0.00 0.00 55 1033.1
20190323150131 52 255 1.0 4.0 0.00 0.00 0.00 53 1033.1
20190323144610 53 223 0.0 3.0 0.00 0.00 0.00 50 1033.0
20190323143151 52 49 0.0 6.0 0.00 0.00 0.00 53 1033.1
20190323141606 52 224 0.0 6.0 0.00 0.00 0.00 54 1033.1
20190323140059 52 65 0.0 2.0 0.00 0.00 0.00 53 1033.1
20190323134635 53 285 1.0 3.0 0.00 0.00 0.00 51 1033.3
20190323133048 51 241 0.0 7.0 0.00 0.00 0.00 53 1033.3
20190323131601 52 165 0.0 3.0 0.00 0.00 0.00 55 1033.6
20190323130049 52 187 0.0 4.0 0.00 0.00 0.00 57 1033.6
20190323124552 51 341 0.0 5.0 0.00 0.00 0.00 56 1033.8
20190323123111 52 81 0.0 2.0 0.00 0.00 0.00 55 1033.8
20190323121630 52 41 0.0 3.0 0.00 0.00 0.00 56 1033.7
20190323120120 51 58 0.0 5.0 0.00 0.00 0.00 57 1033.7
20190323114552 50 257 1.0 4.0 0.00 0.00 0.00 58 1033.8
20190323113031 50 79 0.0 3.0 0.00 0.00 0.00 61 1033.8
20190323111637 50 46 1.0 3.0 0.00 0.00 0.00 60 1033.8
20190323110044 49 283 0.0 9.0 0.00 0.00 0.00 60 1033.9
20190323104619 49 246 0.0 2.0 0.00 0.00 0.00 61 1033.8
20190323103040 49 244 1.0 6.0 0.00 0.00 0.00 61 1033.7
20190323101523 49 249 0.0 2.0 0.00 0.00 0.00 63 1033.8
20190323100028 48 91 0.0 2.0 0.00 0.00 0.00 65 1033.5
20190323094533 47 39 0.0 5.0 0.00 0.00 0.00 68 1033.5
20190323093034 48 221 3.0 7.0 0.00 0.00 0.00 68 1033.4
20190323091519 48 274 0.0 3.0 0.00 0.00 0.00 67 1033.3